Location: Coucy
(49.5537°N, 3.7726°E)
Time: 06:59:17
(UTC+00:00)

Daily predictions for brighter satellites

Satellite Brightness Start Highest point End
(mag) Time Altitude Azimuth Time Altitude Azimuth Time Altitude Azimuth
Cosmos 1190 Rocket 4.2 17:47:25 10° SSW 17:52:38 79° WNW 17:57:52 10° NNE
NOSS 3-1 (A) 4.4 17:48:27 10° NW 17:55:48 74° SW 18:04:33 10° SSE
Cosmos 2369 4.2 17:51:56 10° S 17:57:09 38° ESE 18:02:24 10° NE
CZ-4C R/B 4.3 17:57:30 10° N 18:01:46 57° WNW 18:05:52 10° SSW
CZ-4B DEB 4.5 17:58:32 10° S 18:03:59 75° WSW 18:09:29 10° NNW
SL-16 R/B 3.8 18:06:29 10° ESE 18:08:34 12° E 18:10:38 10° ENE
USA 215 3.5 18:02:25 10° ENE 18:08:58 76° NNW 18:15:29 10° WSW
USA 186 3.6 18:06:59 10° ESE 18:09:03 16° ENE 18:11:07 10° NNE
Cosmos 1844 Rocket 4.2 18:09:40 10° N 18:13:43 20° NE 18:17:37 11° E
SL-4 R/B 2.3 18:09:23 10° WNW 18:13:47 72° N 18:18:03 12° E
Cosmos 1437 Rocket 4.4 18:12:18 10° ESE 18:14:07 13° E 18:15:56 10° ENE
Cosmos 1741 Rocket 4.4 18:10:12 10° S 18:15:07 41° ESE 18:20:02 10° NE
ARGOS Delta rocket 4.1 18:09:54 10° NNE 18:15:12 58° E 18:20:14 10° S
Timation 2 Rocket 4.1 18:11:08 10° NNW 18:17:39 64° NE 18:23:49 10° SE
BREEZE-M DEB (TANK) 4.3 18:16:57 10° SW 18:21:30 54° SE 18:39:18 10° ENE
Okean O Rocket 1.6 18:18:00 10° SSE 18:22:18 64° ENE 18:26:39 10° N
Cosmos 2219 4.3 18:18:56 10° NW 18:24:26 48° WSW 18:29:55 10° S
Nadezhda 4 Rocket 4.4 18:19:21 10° SSE 18:25:14 42° E 18:31:07 10° NNE
Cosmos 1814 Rocket 4.4 18:20:26 10° NNW 18:25:31 44° ENE 18:30:28 10° SE
Cosmos 1242 Rocket 2.4 18:24:29 10° S 18:28:02 82° E 18:31:37 10° NNE
Spot 1 4.0 18:24:18 10° NNE 18:28:38 90° ESE 18:32:45 10° SSW
BREEZE M DEB (TANK) 4.2 18:25:25 10° SSW 18:29:40 17° SSE 18:31:26 13° SE
Cosmos 1809 Rocket 4.4 18:24:14 10° S 18:30:12 63° E 18:36:14 10° NNE
SL-14 R/B 3.2 18:26:33 10° N 18:30:31 74° E 18:34:29 10° SSE
Cosmos 2263 Rocket 2.2 18:26:19 10° NNW 18:32:02 72° ENE 18:37:43 10° SE
Cosmos 1805 3.1 18:30:58 10° S 18:34:50 81° E 18:38:45 10° NNE
Cosmos 2227 4.5 18:29:25 10° NNW 18:34:54 49° NE 18:39:32 14° SE
Cosmos 1674 Rocket 3.5 18:30:36 10° N 18:34:59 70° ENE 18:39:24 10° SSE
YAOGAN 1 2.7 18:31:50 10° SSE 18:36:09 80° WSW 18:40:30 10° NNW
Meteor 2-5 Rocket 4.3 18:31:47 10° N 18:36:54 36° ENE 18:41:16 13° SE
COBE Rocket 4.1 18:33:36 10° S 18:38:29 73° W 18:43:16 10° NNW
Cosmos 1726 2.1 18:34:58 10° S 18:38:30 53° E 18:42:06 10° NNE
OBJECT-B 1.0 18:38:57 28° E 18:39:30 31° ENE 18:41:52 10° N
H-2A R/B 4.0 18:39:27 16° ENE 18:40:00 17° ENE 18:42:31 10° NNE
Cosmos 2082 4.3 18:37:46 10° NW 18:43:25 60° WSW 18:49:02 10° S
IRIDIUM 106 4.3 18:40:40 10° S 18:45:49 65° E 18:51:00 10° N
Cosmos 1766 3.3 18:44:58 10° S 18:48:47 56° E 18:52:39 10° NNE
IRS-1C Rocket 4.5 18:46:16 15° SE 18:50:15 44° ENE 18:55:14 10° N
Cosmos 1025 Rocket 4.1 18:46:55 10° NNE 18:50:30 25° ENE 18:51:17 24° E
Cosmos 2084 Rocket 4.5 18:47:35 10° NNW 18:50:54 27° NNE 18:52:17 22° ENE
Cosmos 1697 Rocket 3.5 18:47:25 10° SW 18:52:54 53° NW 18:58:26 10° NNE
CSL-04 Debris 4.2 18:50:31 10° SSE 18:55:51 62° ENE 19:01:11 10° N
Cosmos 2221 Rocket 4.4 18:53:00 10° NNW 18:57:25 54° W 19:01:50 10° S
Cosmos 1975 Rocket 3.8 18:55:52 10° N 18:59:54 32° ENE 19:00:50 29° E
Landsat 7 4.2 19:00:02 26° ESE 19:02:09 42° ENE 19:06:36 10° N
IGS 5A 3.5 18:59:48 23° SE 19:02:11 55° ENE 19:06:14 10° N
Cosmos 1092 Rocket 4.3 18:56:17 10° SSE 19:02:13 45° E 19:08:09 10° NNE
Cosmos 1378 Rocket 4.0 18:59:49 10° NNW 19:04:10 61° W 19:08:27 10° S
Resurs 01 Rocket 2.7 19:05:25 25° ENE 19:05:41 25° ENE 19:09:20 10° N
Cosmos 968 Rocket 3.8 19:05:03 10° S 19:09:59 43° ESE 19:14:56 10° NE
ATLAS 2AS CENTAUR R/B 4.4 19:08:54 10° WNW 19:15:07 27° N 19:21:03 10° NE
Cosmos 1470 3.0 19:15:56 45° E 19:15:56 45° E 19:19:21 10° NNE
ISS -2.7 19:19:12 10° W 19:22:18 35° SSW 19:22:45 33° SSW
Cosmos 2084 4.2 19:19:06 10° WSW 19:22:46 44° NW 19:25:48 14° NNE
Cosmos 2322 Rocket 3.8 19:19:21 10° SSE 19:27:51 18° NE 19:29:29 10° NE
Ariane Rocket 4.0 19:25:15 28° ENE 19:25:19 28° ENE 19:29:36 10° N
CSL-04 Rocket 3.6 19:21:40 17° SSE 19:25:55 87° WSW 19:31:22 10° NNW
Okean-O 2.5 19:24:10 28° SSE 19:26:29 90° E 19:30:57 10° NNW
Terra 4.1 19:28:17 11° NE 19:28:17 11° NE 19:28:48 10° NE
Resurs 1-3 3.5 19:26:17 41° SSE 19:27:44 75° ENE 19:32:08 10° N
CZ-4 R/B 3.2 19:24:12 10° SSW 19:27:58 33° W 19:31:45 10° NNW
Gbstr 26 Del rocket 4.4 19:21:57 10° SW 19:29:38 72° SSE 19:34:41 26° ENE
SJ-6B 3.0 19:30:23 32° S 19:31:56 65° W 19:35:41 10° NNW
Cosmos 1570 Rocket 4.0 19:26:59 10° NNW 19:32:17 83° WSW 19:34:49 32° SSE
Cosmos 1980 Rocket 3.0 19:27:40 10° SW 19:33:09 51° NW 19:38:39 10° NNE
JB-3 4.2 19:34:00 10° NNE 19:38:06 80° ESE 19:38:37 66° S
Cosmos 1627 Rocket 4.3 19:32:12 10° S 19:38:16 72° E 19:44:23 10° NNE
USA 186 3.1 19:40:04 31° SW 19:41:02 40° W 19:44:13 10° NNW
deb Chang Zheng 4 3.3 19:41:18 73° ENE 19:41:18 73° ENE 19:45:26 10° NNW
Cosmos 1428 Rocket 4.4 19:39:30 10° S 19:45:41 88° E 19:51:59 10° N
Cosmos 2195 Rocket 4.4 19:39:37 10° S 19:45:50 88° W 19:52:11 10° N
Cosmos 2278 4.0 19:42:46 10° SW 19:48:25 66° WNW 19:54:06 10° NNE
Meteor 1-24 Rocket 3.7 19:43:32 10° NNW 19:48:50 74° W 19:51:25 31° S
Cosmos 1437 Rocket 3.3 19:46:07 10° SSW 19:49:48 54° WNW 19:53:29 10° N
USA 215 4.0 19:47:18 20° ENE 19:51:35 48° N 19:57:48 10° WNW
SL-16 R/B 2.0 19:45:59 10° SSW 19:51:37 71° ESE 19:57:17 10° NNE
SL-4 R/B 2.6 19:48:52 10° WNW 19:53:19 55° SSW 19:53:27 55° SSW
Cosmos 2208 Rocket 4.3 19:50:18 10° NNW 19:55:38 69° WSW 19:57:21 43° S
Cosmos 1844 Rocket 2.6 19:52:54 10° NNW 19:58:37 75° ENE 19:59:17 67° ESE
Okean O Rocket 4.4 19:56:24 10° SW 19:59:05 16° W 20:01:48 10° NW
Meteor 1-22 Rocket 4.3 19:55:46 10° SSW 20:01:07 72° WNW 20:06:44 10° N
USA 81 4.3 19:56:20 10° N 20:01:36 68° W 20:03:45 35° SSW
Cosmos 2278 Rocket 3.9 19:58:46 10° N 20:02:47 19° NE 20:03:03 19° NE
Cosmos 2026 Rocket 4.0 19:57:17 10° SSW 20:03:21 78° W 20:09:27 10° N
Cosmos 1782 Rocket 4.1 20:06:54 40° SW 20:08:09 55° WNW 20:12:28 10° N
Cosmos 1553 Rocket 3.9 20:01:59 10° N 20:08:21 83° E 20:09:43 58° SSE
MOS 1 4.2 20:08:42 68° SSE 20:09:29 89° ENE 20:15:12 10° NNW
OBJECT-B 3.9 20:09:48 10° W 20:09:48 10° W 20:09:54 10° W
Cosmos 1943 Rocket 4.5 20:10:45 10° N 20:12:20 11° NNE 20:13:27 11° NE
H-2A R/B 3.4 20:15:55 44° NW 20:15:55 44° NW 20:18:54 10° NNW
Cosmos 2263 Rocket 4.4 20:11:10 10° NW 20:15:23 22° W 20:19:34 10° SSW
USA 281 3.6 20:16:22 44° ENE 20:16:42 44° NE 20:22:52 10° NNW
Cosmos 1844 3.5 20:14:37 10° NNW 20:20:06 86° NNW 20:20:06 86° NNW
Cosmos 1025 Rocket 4.3 20:24:14 10° NNW 20:28:10 36° W 20:28:10 36° W
MetOp-B 4.3 20:31:47 65° N 20:31:47 65° N 20:36:21 10° NNW
SPOT 1/Viking Rocket 3.9 20:32:06 60° W 20:32:06 60° W 20:37:07 10° NNW
SPOT 3 Rocket 4.4 20:37:48 44° N 20:37:48 44° N 20:41:21 10° N
Cosmos 2360 Rocket 4.4 20:46:44 14° NNE 20:46:44 14° NNE 20:47:31 10° NNE
Resurs 01 Rocket 3.0 20:42:59 36° WNW 20:42:59 36° WNW 20:46:13 10° NNW
Ariane Rocket 4.2 21:05:27 39° NW 21:05:27 39° NW 21:09:00 10° NNW
Terra 3.8 21:07:10 23° N 21:07:10 23° N 21:08:59 10° N
ATLAS 2AS CENTAUR R/B 3.8 21:01:42 10° NW 21:08:13 33° NNE 21:09:00 32° NE
Cosmos 2322 Rocket 3.2 21:09:30 42° NNW 21:09:30 42° NNW 21:13:50 10° NNE
NOSS 3-4 (A) 4.0 21:12:48 10° NW 21:18:30 64° NNW 21:18:30 64° NNW
NOSS 3-4 (C) 4.0 21:12:55 10° NW 21:18:36 64° NNW 21:18:36 64° NNW
USA 215 3.9 21:34:39 51° N 21:34:39 51° N 21:40:20 10° WNW
SL-16 R/B 4.1 21:31:30 10° W 21:36:16 27° NW 21:41:03 10° NNE
Cosmos 2278 Rocket 3.9 21:42:12 10° NNW 21:44:53 29° NNW 21:44:53 29° NNW
Cosmos 1943 Rocket 4.3 21:52:51 10° NNW 21:54:57 21° N 21:54:57 21° N
USA 281 4.3 22:03:15 37° WNW 22:03:15 37° WNW 22:07:30 10° NW
Cosmos 2369 Rocket 4.5 21:57:34 10° N 22:00:00 17° NNE 22:00:00 17° NNE
Cosmos 2360 Rocket 4.4 22:28:27 20° NNW 22:28:27 20° NNW 22:31:04 10° NNE
ATLAS 2AS CENTAUR R/B 4.2 22:53:00 10° NW 22:56:24 30° NW 22:56:24 30° NW
